User: anonymous   Login
Location: NJAA Observatory
(40.6819°N, 74.8979°W)
Time: 17:03:31
(UTC-04:00)
Language:

S-56A Canister/Altair - Orbit

View from above orbital plane
View from above orbital plane
View from above satellite
View from above satellite

Ground track
Ground track

The orbit data is extracted from the following two-line orbital elements,

1    82U 61004B   17293.77248442 +.00000156 +00000-0 +18025-3 0  9992
2    82 038.8531 192.3107 1172134 079.3545 293.6717 12.25887256688671
Epoch (UTC): 20 October 2017 18:32:22
Eccentricity: 0.1172134
inclination: 38.8531°
perigee height: 636 km
apogee height: 2498 km
right ascension of ascending node: 192.3107°
argument of perigee: 79.3545°
revolutions per day: 12.25887256
mean anomaly at epoch: 293.6717°
orbit number at epoch: 68867

The dashed part of the orbit path shows where the satellite is in the earth's shadow,  

DLR